Date,TemperatureHighF,TemperatureAvgF,TemperatureLowF,DewpointHighF,DewpointAvgF,DewpointLowF,HumidityHigh,HumidityAvg,HumidityLow,PressureMaxIn,PressureMinIn,WindSpeedMaxMPH,WindSpeedAvgMPH,GustSpeedMaxMPH,PrecipitationSumIn
2013-1-1,32,28,25,23,12,5,85,53,36,0.00,40.00,21,12,36,0.01
2013-1-2,52,35,27,8,4,-4,43,27,15,0.00,40.00,10,5,25,0.00
2013-1-3,48,38,33,10,5,0,33,25,17,0.00,40.00,14,6,21,0.00
2013-1-4,47,38,33,10,5,0,32,25,17,0.00,40.00,11,5,14,0.00
2013-1-5,43,37,34,9,3,-3,32,24,18,0.00,40.00,15,6,21,0.00
2013-1-6,35,29,25,30,23,-2,100,85,20,0.00,40.00,21,12,36,0.00
2013-1-7,55,36,24,26,16,4,100,53,13,0.00,40.00,16,8,32,0.00
2013-1-8,56,48,42,29,25,18,53,41,32,0.00,40.00,13,6,21,0.00
2013-1-9,52,46,38,30,28,24,71,49,39,0.00,40.00,17,7,26,0.00
2013-1-10,38,23,18,32,20,10,100,87,59,0.00,40.00,36,22,60,0.00
2013-1-11,22,18,16,19,15,13,89,87,85,0.00,40.00,18,10,38,0.00
2013-1-12,29,20,16,15,12,8,88,70,40,0.00,40.00,12,6,18,0.00
2013-1-13,27,20,13,11,5,-5,75,54,42,0.00,40.00,12,6,21,0.00
2013-1-14,30,20,11,-4,-9,-18,44,27,18,0.00,40.00,15,5,22,0.00
2013-1-15,44,32,21,11,6,-6,41,33,23,0.00,40.00,15,7,26,0.00
2013-1-16,57,44,32,14,7,-2,43,24,11,0.00,40.00,15,6,26,0.00
2013-1-17,49,41,34,4,-2,-8,25,16,9,0.00,40.00,16,8,29,0.00
2013-1-18,52,41,35,-1,-4,-11,19,14,10,0.00,40.00,17,10,26,0.00
2013-1-19,55,44,39,-4,-8,-16,15,11,8,0.00,40.00,19,7,27,0.00
2013-1-20,58,46,39,-4,-10,-17,12,9,7,0.00,40.00,8,4,20,0.00
2013-1-21,57,47,42,-4,-10,-19,12,9,6,0.00,40.00,13,6,27,0.00
2013-1-22,54,46,40,3,-2,-5,17,14,11,0.00,40.00,20,10,29,0.00
2013-1-23,51,47,38,28,13,0,68,28,14,0.00,40.00,14,10,23,0.01
2013-1-24,46,40,37,43,37,27,97,90,60,0.00,40.00,11,6,22,0.26
2013-1-25,41,40,38,40,39,37,98,97,97,0.00,40.00,16,9,26,0.13
2013-1-26,43,40,35,40,35,26,98,84,70,0.00,40.00,30,16,46,0.13
2013-1-27,36,30,25,29,22,13,90,74,47,0.00,40.00,43,26,65,0.01
2013-1-28,36,27,22,34,21,7,95,79,34,0.00,40.00,23,14,34,0.00
2013-1-29,53,40,30,35,26,15,95,62,30,0.00,40.00,33,20,40,0.00
2013-1-30,56,43,33,24,20,18,59,42,24,0.00,40.00,14,8,19,0.00
2013-1-31,55,48,39,21,18,15,43,31,22,0.00,40.00,9,4,15,0.00
2013-2-1,63,49,43,29,22,8,44,35,22,0.00,40.00,12,5,16,0.00
2013-2-2,54,46,40,32,18,12,74,33,25,0.00,40.00,12,6,20,0.00
2013-2-3,54,44,38,33,26,21,79,53,29,0.00,40.00,18,8,22,0.00
2013-2-4,58,48,41,26,18,13,49,32,17,0.00,40.00,13,5,15,0.00
2013-2-5,53,45,36,30,19,14,80,36,22,0.00,40.00,31,19,55,0.00
2013-2-6,52,40,32,31,24,13,92,58,27,0.00,40.00,21,10,44,0.00
2013-2-7,51,38,25,21,7,-6,84,33,13,0.00,40.00,28,13,47,0.00
2013-2-8,31,25,22,25,21,18,94,85,61,0.00,40.00,28,17,47,0.00
2013-2-9,32,25,22,22,20,18,94,80,57,0.00,40.00,23,16,34,0.00
2013-2-10,42,31,24,21,15,9,79,53,30,0.00,40.00,13,7,28,0.00
2013-2-11,41,30,24,10,4,-6,52,34,17,0.00,40.00,9,4,18,0.00
2013-2-12,48,36,28,16,8,-1,59,31,21,0.00,40.00,10,4,17,0.00
2013-2-13,57,43,34,15,9,4,41,25,15,0.00,40.00,9,4,18,0.00
2013-2-14,53,44,38,19,15,11,40,31,22,0.00,40.00,16,8,30,0.00
2013-2-15,52,45,40,17,11,6,38,25,20,0.00,40.00,21,9,32,0.00
2013-2-16,53,46,40,14,3,0,32,17,11,0.00,40.00,16,8,24,0.00
2013-2-17,52,41,36,20,13,8,49,32,22,0.00,40.00,24,18,40,0.00
2013-2-18,51,43,33,27,18,10,79,39,25,0.00,40.00,23,10,30,0.00
2013-2-19,34,29,21,30,24,13,96,82,53,0.00,40.00,35,24,51,0.00
2013-2-20,28,22,19,26,20,17,93,89,79,0.00,40.00,18,9,27,0.00
2013-2-21,39,28,21,30,21,17,93,78,44,0.00,40.00,19,10,22,0.00
2013-2-22,48,35,25,23,15,3,87,47,24,0.00,40.00,23,10,27,0.00
2013-2-23,39,33,29,28,23,17,96,67,46,0.00,40.00,39,25,63,0.00
2013-2-24,40,32,25,28,3,-7,96,35,15,0.00,40.00,21,8,31,0.00
2013-2-25,52,37,30,17,8,-6,47,31,14,0.00,40.00,19,12,39,0.00
2013-2-26,46,38,30,21,8,-1,67,33,15,0.00,40.00,18,10,33,0.00
2013-2-27,46,39,32,11,-1,-4,33,19,13,0.00,40.00,12,6,17,0.00
2013-2-28,55,44,37,23,6,1,46,23,13,0.00,40.00,14,5,16,0.00
2013-3-1,57,49,41,23,13,6,46,24,18,0.00,40.00,18,10,30,0.00
2013-3-2,60,52,46,21,16,14,36,24,17,0.00,40.00,35,9,54,0.00
2013-3-3,47,42,35,33,27,19,79,56,35,0.00,40.00,38,28,63,0.00
2013-3-4,59,43,33,31,28,18,84,59,20,0.00,40.00,25,12,39,0.00
2013-3-5,57,46,38,28,21,11,55,38,17,0.00,40.00,19,12,32,0.00
2013-3-6,38,34,31,33,27,18,96,75,44,0.00,40.00,36,29,57,0.00
2013-3-7,45,34,29,29,27,22,96,79,43,0.00,40.00,28,11,41,0.00
2013-3-8,31,29,27,29,27,26,95,93,83,0.00,40.00,18,10,37,0.00
2013-3-9,39,32,28,32,26,3,95,83,22,0.00,40.00,18,12,32,0.23
2013-3-10,58,46,37,24,8,-6,45,22,12,0.00,40.00,14,7,21,0.01
2013-3-11,60,51,42,16,5,-6,25,15,11,0.00,40.00,8,4,15,0.00
2013-3-12,63,56,49,14,9,6,24,15,12,0.00,40.00,14,7,23,0.00
2013-3-13,67,59,51,20,12,7,22,16,13,0.00,40.00,10,6,17,0.00
2013-3-14,72,63,55,29,19,9,30,19,13,0.00,40.00,15,7,18,0.00
2013-3-15,67,55,48,37,28,16,63,37,15,0.00,40.00,32,19,43,0.00
2013-3-16,63,50,43,36,31,18,74,51,19,0.00,40.00,31,17,58,0.00
2013-3-17,58,47,41,27,20,13,51,35,17,0.00,40.00,31,20,53,0.00
2013-3-18,64,47,39,27,20,4,62,36,9,0.00,40.00,29,18,46,0.00
2013-3-19,65,47,39,29,21,14,51,36,20,0.00,40.00,29,16,46,0.00
2013-3-20,53,46,39,34,28,16,69,51,25,0.00,40.00,49,28,69,0.00
2013-3-21,58,44,37,35,29,21,81,60,28,0.00,40.00,32,21,58,0.00
2013-3-22,53,40,32,34,26,8,96,62,17,0.00,40.00,29,20,41,0.00
2013-3-23,59,44,33,23,9,-5,65,28,9,0.00,40.00,23,12,28,0.00
2013-3-24,62,48,39,25,11,-2,43,26,9,0.00,40.00,19,11,25,0.00
2013-3-25,64,50,42,22,13,-2,41,25,8,0.00,40.00,22,15,31,0.00
2013-3-26,57,46,39,32,22,2,62,40,17,0.00,40.00,38,24,59,0.00
2013-3-27,54,45,39,33,29,24,73,56,32,0.00,40.00,27,21,40,0.00
2013-3-28,58,50,45,32,26,21,50,39,26,0.00,40.00,28,18,45,0.00
2013-3-29,61,52,42,35,24,17,55,37,19,0.00,40.00,19,12,27,0.00
2013-3-30,66,55,47,35,24,-100,62,34,17,0.00,40.00,18,8,27,0.00
2013-3-31,52,44,36,37,35,29,97,71,46,0.00,40.00,30,17,46,0.02
2013-4-1,49,39,32,34,30,28,94,72,44,0.00,40.00,38,24,57,0.02
2013-4-2,60,45,35,37,32,28,93,66,30,0.00,40.00,28,17,36,0.00
2013-4-3,65,54,42,36,26,19,77,39,18,0.00,40.00,15,9,24,0.00
2013-4-4,54,50,43,39,32,26,68,51,34,0.00,40.00,37,24,56,0.00
2013-4-5,56,45,40,37,34,32,82,68,44,0.00,40.00,34,26,58,0.00
2013-4-6,56,44,38,36,32,25,78,62,42,0.00,40.00,32,23,49,0.00
2013-4-7,56,44,39,36,32,29,79,64,41,0.00,40.00,44,26,71,0.00
2013-4-8,42,33,26,35,28,24,96,82,64,0.00,40.00,44,30,72,0.00
2013-4-9,52,39,29,29,21,5,92,53,20,0.00,40.00,20,12,35,0.00
2013-4-10,66,50,41,22,11,-3,36,21,11,0.00,40.00,24,11,32,0.00
2013-4-11,67,50,42,38,27,19,67,42,21,0.00,40.00,24,17,33,0.00
2013-4-12,69,55,44,38,30,23,77,43,21,0.00,40.00,21,13,33,0.00
2013-4-13,62,52,44,37,29,20,75,43,22,0.00,40.00,35,26,57,0.00
2013-4-14,58,50,44,35,31,24,64,49,32,0.00,40.00,46,29,80,0.00
2013-4-15,47,41,33,28,23,17,76,50,33,0.00,40.00,52,38,85,0.00
2013-4-16,42,32,25,26,18,11,82,58,33,0.00,40.00,31,20,55,0.00
2013-4-17,54,37,28,20,13,3,65,42,15,0.00,40.00,19,10,32,0.00
2013-4-18,54,43,32,19,4,-2,54,23,11,0.00,40.00,11,6,24,0.00
2013-4-19,63,52,43,23,10,-1,40,19,11,0.00,40.00,25,9,40,0.00
2013-4-20,72,54,43,32,25,14,53,36,11,0.00,40.00,24,14,32,0.00
2013-4-21,74,59,47,31,25,19,50,30,13,0.00,40.00,28,17,39,0.00
2013-4-22,71,58,49,31,25,14,50,30,13,0.00,40.00,30,20,41,0.00
2013-4-23,63,56,51,33,19,7,48,26,12,0.00,40.00,25,13,36,0.00
2013-4-24,66,57,48,27,13,3,41,21,9,0.00,40.00,19,12,32,0.00
2013-4-25,67,54,44,30,20,4,54,28,12,0.00,40.00,25,13,38,0.00
2013-4-26,71,56,44,36,26,4,72,38,8,0.00,40.00,25,14,31,0.00
2013-4-27,75,61,50,36,24,12,57,29,10,0.00,40.00,22,15,36,0.00
2013-4-28,78,60,52,38,23,-100,55,32,11,0.00,40.00,25,18,35,0.00
2013-4-29,78,62,54,41,34,23,58,38,16,0.00,40.00,27,16,34,0.00
2013-4-30,68,60,52,42,33,24,60,39,21,0.00,40.00,34,26,57,0.00
2013-5-1,68,59,51,38,7,-22,58,22,3,0.00,40.00,27,11,38,0.00
2013-5-2,64,55,45,-6,-13,-19,10,6,4,0.00,40.00,23,11,39,0.00
2013-5-3,73,60,52,24,-8,-21,20,7,3,0.00,40.00,19,8,33,0.00
2013-5-4,71,60,53,30,22,15,40,25,13,0.00,40.00,25,16,43,0.00
2013-5-5,55,49,41,35,24,10,73,41,22,0.00,40.00,29,13,41,0.00
2013-5-6,52,40,35,43,35,28,97,81,56,0.00,40.00,23,12,36,0.03
2013-5-7,47,40,35,37,35,34,97,86,64,0.00,40.00,26,17,39,0.02
2013-5-8,56,44,36,48,36,29,97,78,38,0.00,40.00,25,18,37,0.01
2013-5-9,57,45,40,51,40,32,97,85,51,0.00,40.00,21,16,31,0.05
2013-5-10,74,57,45,46,35,-100,89,53,19,0.00,40.00,20,11,27,0.04
2013-5-11,77,65,56,41,30,-100,56,30,14,0.00,40.00,18,9,30,0.00
2013-5-12,85,67,58,42,35,18,48,34,10,0.00,40.00,19,13,27,0.00
2013-5-13,82,69,61,44,32,21,50,28,13,0.00,40.00,25,15,35,0.00
2013-5-14,74,65,54,35,22,5,45,21,7,0.00,40.00,45,21,68,0.00
2013-5-15,71,58,51,41,33,23,65,41,18,0.00,40.00,30,20,54,0.00
2013-5-16,60,50,44,39,18,-100,73,42,31,0.00,40.00,40,27,59,0.00
2013-5-17,56,48,42,38,34,-100,80,64,48,0.00,40.00,40,25,65,0.00
2013-5-18,64,52,43,34,28,20,63,43,18,0.00,40.00,30,22,53,0.00
2013-5-19,70,55,45,34,27,16,48,36,16,0.00,40.00,25,15,97,0.00
2013-5-20,72,60,51,36,24,13,57,30,12,0.00,40.00,17,11,34,0.00
2013-5-21,69,60,52,25,19,10,31,22,11,0.00,40.00,46,24,64,0.00
2013-5-22,58,50,40,30,23,1,54,36,11,0.00,40.00,45,34,79,0.00
2013-5-23,56,45,37,27,14,-1,60,31,10,0.00,40.00,41,30,57,0.00
2013-5-24,69,53,39,30,18,-1,56,30,8,0.00,40.00,24,13,39,0.00
2013-5-25,66,52,42,30,22,14,58,35,13,0.00,40.00,32,22,47,0.00
2013-5-26,62,52,45,38,28,22,69,41,27,0.00,40.00,37,26,55,0.00
2013-5-27,63,51,45,39,32,27,65,49,29,0.00,40.00,37,27,62,0.00
2013-5-28,57,50,44,44,38,33,77,64,52,0.00,40.00,36,28,60,0.00
2013-5-29,61,53,46,46,40,36,79,63,39,0.00,40.00,38,22,55,0.00
2013-5-30,71,58,48,43,34,18,75,48,13,0.00,40.00,36,24,56,0.00
2013-5-31,77,64,52,40,26,15,59,28,10,0.00,40.00,29,14,48,0.00
2013-6-1,84,73,63,37,19,5,35,15,6,0.00,40.00,15,9,21,0.00
2013-6-2,85,71,63,37,23,10,36,18,10,0.00,40.00,22,13,33,0.00
2013-6-3,81,68,60,46,34,24,42,29,14,0.00,40.00,22,14,28,0.00
2013-6-4,82,68,57,45,37,25,54,34,14,0.00,40.00,19,12,28,0.00
2013-6-5,85,71,57,47,35,19,62,33,9,0.00,40.00,23,13,30,0.00
2013-6-6,88,74,62,47,33,15,49,27,8,0.00,40.00,20,14,31,0.00
2013-6-7,90,77,64,46,30,13,50,23,6,0.00,40.00,22,12,26,0.00
2013-6-8,92,82,70,46,26,13,31,15,6,0.00,40.00,20,13,31,0.00
2013-6-9,84,75,67,51,27,-12,49,22,3,0.00,40.00,22,13,32,0.00
2013-6-10,70,63,55,38,22,1,51,23,7,0.00,40.00,29,18,47,0.00
2013-6-11,83,67,55,38,31,23,51,29,11,0.00,40.00,29,16,49,0.00
2013-6-12,83,68,60,41,29,17,40,25,10,0.00,40.00,29,17,44,0.00
2013-6-13,72,60,54,40,24,-4,51,28,5,0.00,40.00,37,27,58,0.00
2013-6-14,81,65,51,34,18,0,39,21,5,0.00,40.00,31,14,44,0.00
2013-6-15,78,64,53,31,22,10,38,23,8,0.00,40.00,24,16,37,0.00
2013-6-16,74,63,55,34,26,19,40,26,13,0.00,40.00,28,21,39,0.00
2013-6-17,76,63,55,41,30,22,53,31,15,0.00,40.00,33,24,45,0.00
2013-6-18,70,60,52,41,26,10,53,31,10,0.00,40.00,43,30,65,0.00
2013-6-19,65,55,45,39,28,16,60,39,19,0.00,40.00,50,28,82,0.00
2013-6-20,69,52,46,32,22,11,49,34,15,0.00,40.00,35,23,43,0.00
2013-6-22,77,67,55,34,26,22,37,22,15,0.00,40.00,28,16,37,0.00
2013-6-23,69,60,52,39,33,28,54,37,25,0.00,40.00,39,28,58,0.00
2013-6-24,60,55,49,49,40,30,75,59,44,0.00,40.00,36,28,59,0.00
2013-6-25,71,59,50,51,46,42,85,63,36,0.00,40.00,34,22,60,0.00
2013-6-26,82,66,57,53,45,33,79,52,17,0.00,40.00,31,22,40,0.00
2013-6-27,88,72,60,56,48,36,81,49,17,0.00,40.00,25,16,30,0.00
2013-6-28,92,76,64,56,45,28,69,39,11,0.00,40.00,22,14,28,0.00
2013-6-29,96,76,66,53,46,34,61,38,14,0.00,40.00,24,16,29,0.00
2013-6-30,96,80,68,52,37,20,53,27,8,0.00,40.00,22,15,37,0.00
2013-7-1,92,81,71,49,38,28,41,23,12,0.00,40.00,22,12,25,0.00
2013-7-2,94,80,72,48,41,29,36,27,14,0.00,40.00,26,12,41,0.00
2013-7-3,87,77,69,47,42,32,41,30,19,0.00,40.00,26,18,36,0.07
2013-7-4,91,78,68,53,46,35,51,35,16,0.00,40.00,20,14,33,0.07
2013-7-5,87,76,68,51,45,40,48,35,22,0.00,40.00,22,17,35,0.00
2013-7-6,88,73,66,40,31,21,33,22,11,0.00,40.00,23,16,32,0.00
2013-7-7,85,74,65,34,27,18,28,19,9,0.00,40.00,23,18,37,0.00
2013-7-8,82,72,66,27,22,17,19,15,9,0.00,40.00,22,16,44,0.00
2013-7-9,84,74,64,29,23,15,19,15,10,0.00,40.00,27,19,44,0.00
2013-7-10,81,73,68,44,30,-100,36,21,16,0.00,40.00,25,17,40,0.00
2013-7-11,77,66,59,53,45,36,68,48,32,0.00,40.00,33,14,43,0.08
2013-7-12,82,69,60,40,31,15,43,28,10,0.00,40.00,20,14,34,0.01
2013-7-13,80,69,60,36,29,22,34,23,15,0.00,40.00,25,20,37,0.00
2013-7-14,84,72,64,34,29,25,28,21,14,0.00,40.00,24,18,30,0.00
2013-7-15,84,72,63,37,28,19,26,20,15,0.00,40.00,24,17,31,0.00
2013-7-16,85,75,63,30,25,18,25,16,10,0.00,40.00,23,11,29,0.00
2013-7-17,86,69,58,37,27,13,36,23,8,0.00,40.00,24,14,31,0.00
2013-7-18,89,76,60,43,27,13,41,19,6,0.00,40.00,20,11,27,0.00
2013-7-19,93,80,66,38,29,18,33,18,8,0.00,40.00,21,12,25,0.00
2013-7-20,86,77,68,43,32,22,28,19,14,0.00,40.00,21,12,25,0.00
2013-7-21,81,74,69,57,45,34,65,35,25,0.00,40.00,15,8,25,0.00
2013-7-22,77,67,61,62,54,49,86,64,44,0.00,40.00,16,9,37,0.18
2013-7-23,78,69,61,67,52,45,74,58,38,0.00,40.00,20,10,29,0.15
2013-7-24,86,71,60,54,47,34,71,48,18,0.00,40.00,26,16,30,0.01
2013-7-25,89,74,63,48,44,37,53,38,19,0.00,40.00,26,16,33,0.00
2013-7-26,71,67,63,60,51,45,80,58,39,0.00,40.00,25,16,31,0.04
2013-7-27,79,70,63,55,52,48,73,55,36,0.00,40.00,16,10,26,0.03
2013-7-28,82,70,63,49,44,37,54,41,26,0.00,40.00,20,14,29,0.00
2013-7-29,85,71,62,45,38,27,44,32,14,0.00,40.00,20,12,28,0.00
2013-7-30,81,72,62,45,38,30,43,31,17,0.00,40.00,19,12,28,0.00
2013-7-31,83,73,64,41,30,13,43,23,7,0.00,40.00,19,11,29,0.00
2013-8-1,77,66,57,38,32,18,45,30,11,0.00,40.00,33,25,47,0.00
2013-8-2,81,65,55,37,25,17,43,23,12,0.00,40.00,35,20,42,0.00
2013-8-3,84,67,56,28,22,12,32,20,7,0.00,40.00,27,17,32,0.00
2013-8-4,83,70,60,31,21,10,26,16,8,0.00,40.00,21,14,25,0.00
2013-8-5,86,70,59,30,21,11,33,17,7,0.00,40.00,22,16,34,0.00
2013-8-6,85,70,59,40,29,20,49,25,9,0.00,40.00,25,17,29,0.00
2013-8-7,72,63,55,40,29,11,54,31,10,0.00,40.00,32,25,48,0.00
2013-8-8,74,60,51,38,31,9,58,38,8,0.00,40.00,29,19,44,0.00
2013-8-9,77,63,51,41,34,23,67,36,15,0.00,40.00,25,14,30,0.00
2013-8-10,78,64,53,40,36,28,56,37,21,0.00,40.00,23,16,29,0.00
2013-8-11,79,65,55,44,34,19,57,35,12,0.00,40.00,24,14,29,0.00
2013-8-12,85,68,55,43,33,21,60,32,13,0.00,40.00,24,15,29,0.00
2013-8-13,85,70,58,41,28,-100,51,26,8,0.00,40.00,24,13,29,0.00
2013-8-14,85,73,61,40,26,-100,43,22,7,0.00,40.00,20,13,24,0.00
2013-8-15,85,70,63,37,22,-100,35,19,13,0.00,40.00,17,12,31,0.00
2013-8-16,87,75,64,47,37,22,36,26,16,0.00,40.00,19,12,32,0.00
2013-8-17,88,73,63,42,36,-100,43,28,10,0.00,40.00,19,14,25,0.00
2013-8-18,86,73,65,47,34,16,43,26,13,0.00,40.00,24,12,48,0.00
2013-8-19,78,66,61,59,39,-100,66,44,34,0.00,40.00,25,13,35,0.00
2013-8-20,85,74,66,49,37,-100,49,30,13,0.00,40.00,19,9,27,0.00
2013-8-21,83,75,68,40,34,27,32,23,17,0.00,40.00,20,11,34,0.00
2013-8-22,86,74,65,40,34,29,37,24,14,0.00,40.00,20,10,31,0.00
2013-8-23,85,72,62,38,27,13,36,20,8,0.00,40.00,19,11,27,0.00
2013-8-24,81,67,57,39,29,-100,51,27,8,0.00,40.00,20,11,25,0.00
2013-8-25,79,68,58,40,28,15,42,24,11,0.00,40.00,15,11,29,0.00
2013-8-26,75,65,58,62,46,31,79,51,33,0.00,40.00,13,8,32,0.00
2013-8-27,68,61,58,57,53,50,87,75,66,0.00,40.00,16,8,26,0.00
2013-8-28,81,75,69,50,46,39,49,37,28,0.00,40.00,16,12,28,0.00
2013-8-29,86,73,66,49,43,39,43,34,23,0.00,40.00,13,9,22,0.00
2013-8-30,81,73,66,60,50,43,65,46,34,0.00,40.00,13,7,21,0.00
2013-8-31,84,70,62,52,45,-100,57,42,30,0.00,40.00,19,13,28,0.00
2013-9-1,81,69,63,54,45,37,69,45,27,0.00,40.00,21,15,29,0.00
2013-9-2,84,70,62,54,48,37,70,49,23,0.00,40.00,19,12,30,0.00
2013-9-3,82,71,63,52,47,42,59,44,28,0.00,40.00,16,10,26,0.00
2013-9-4,84,74,66,55,43,39,45,34,24,0.00,40.00,16,8,26,0.00
2013-9-5,87,74,64,47,42,36,51,32,20,0.00,40.00,18,9,25,0.00
2013-9-6,85,72,61,45,38,33,49,31,16,0.00,40.00,20,14,27,0.00
2013-9-7,83,71,64,38,28,-100,33,22,10,0.00,40.00,19,14,31,0.00
2013-9-8,80,70,62,47,34,17,56,28,14,0.00,40.00,19,12,32,0.00
2013-9-9,80,68,61,47,41,34,56,37,24,0.00,40.00,21,10,32,0.00
2013-9-10,78,69,61,47,37,33,40,31,25,0.00,40.00,21,11,26,0.00
2013-9-11,78,66,58,40,37,32,47,35,23,0.00,40.00,22,15,26,0.00
2013-9-12,81,66,56,48,38,32,51,37,20,0.00,40.00,22,15,28,0.00
2013-9-13,80,68,57,48,42,34,60,42,22,0.00,40.00,25,12,30,0.00
2013-9-14,84,72,61,45,36,-100,51,30,18,0.00,40.00,18,9,23,0.00
2013-9-15,84,74,64,49,36,27,56,30,13,0.00,40.00,20,13,28,0.00
2013-9-16,81,74,67,34,29,20,27,20,12,0.00,40.00,21,13,36,0.00
2013-9-17,74,62,53,42,33,19,63,36,15,0.00,40.00,40,23,54,0.00
2013-9-18,61,54,50,44,38,26,69,58,29,0.00,40.00,33,23,53,0.00
2013-9-19,77,68,58,26,13,6,29,12,9,0.00,40.00,11,6,23,0.00
2013-9-20,79,69,58,38,24,15,46,20,10,0.00,40.00,22,12,28,0.00
2013-9-21,61,53,43,45,35,-100,87,53,29,0.00,40.00,44,25,59,0.00
2013-9-22,57,46,36,41,33,21,87,63,35,0.00,40.00,38,21,61,0.00
2013-9-23,76,62,47,35,24,17,63,24,15,0.00,40.00,12,7,19,0.00
2013-9-24,72,60,55,37,22,6,48,26,9,0.00,40.00,46,25,60,0.00
2013-9-25,56,48,39,43,34,25,83,59,37,0.00,40.00,54,39,76,0.00
2013-9-26,51,41,35,29,26,21,73,57,33,0.00,40.00,27,17,56,0.00
2013-9-27,60,49,38,31,20,12,73,37,16,0.00,40.00,19,9,28,0.00
2013-9-28,65,56,48,19,11,-100,24,18,12,0.00,40.00,18,5,18,0.00
2013-9-29,69,58,51,29,18,6,35,22,13,0.00,40.00,33,22,48,0.00
2013-9-30,70,59,52,32,26,19,35,29,18,0.00,40.00,43,25,65,0.00
2013-10-1,69,60,54,42,38,34,55,45,31,0.00,40.00,32,25,40,0.00
2013-10-2,64,54,46,45,38,28,95,60,27,0.00,40.00,34,25,49,0.00
2013-10-3,57,50,44,37,24,12,60,38,20,0.00,40.00,33,22,62,0.00
2013-10-4,57,49,43,19,3,-4,33,16,10,0.00,40.00,20,13,42,0.00
2013-10-5,59,51,44,8,5,0,20,15,10,0.00,40.00,22,14,41,0.00
2013-10-6,64,57,49,5,0,-10,15,10,6,0.00,40.00,16,10,27,0.00
2013-10-7,72,60,52,10,2,-6,14,10,7,0.00,40.00,29,9,42,0.00
2013-10-8,63,54,47,20,14,4,31,21,12,0.00,40.00,34,21,49,0.00
2013-10-9,49,40,32,36,29,17,96,67,30,0.00,40.00,34,17,48,0.00
2013-10-10,53,40,32,34,30,23,95,68,42,0.00,40.00,21,17,28,0.00
2013-10-11,61,49,40,32,28,21,66,46,26,0.00,40.00,20,9,25,0.00
2013-10-12,61,49,42,33,21,-100,63,37,15,0.00,40.00,26,14,44,0.00
2013-10-13,54,46,40,35,30,23,76,54,38,0.00,40.00,37,18,49,0.00
2013-10-14,56,48,41,25,22,17,50,36,26,0.00,40.00,13,8,22,0.00
2013-10-15,58,51,44,23,19,16,36,28,21,0.00,40.00,17,10,31,0.00
2013-10-16,59,50,42,16,12,5,30,22,12,0.00,40.00,12,7,31,0.00
2013-10-17,68,54,46,27,17,5,38,25,13,0.00,40.00,20,11,25,0.00
2013-10-18,65,57,48,25,10,3,38,16,9,0.00,40.00,12,6,23,0.00
2013-10-19,70,60,53,15,5,-100,16,12,8,0.00,40.00,22,6,25,0.00
2013-10-20,71,60,51,16,7,-2,19,12,7,0.00,40.00,22,10,26,0.00
2013-10-21,68,60,55,12,7,1,16,12,9,0.00,40.00,18,9,27,0.00
2013-10-22,65,58,52,15,12,7,19,16,13,0.00,40.00,16,9,29,0.00
2013-10-23,67,58,52,16,13,10,21,17,12,0.00,40.00,10,6,22,0.00
2013-10-24,70,59,53,27,14,5,27,18,10,0.00,40.00,18,9,19,0.00
2013-10-25,71,59,49,27,17,9,38,21,11,0.00,40.00,19,10,22,0.00
2013-10-26,67,61,54,18,10,-100,21,14,11,0.00,40.00,10,7,22,0.00
2013-10-27,65,57,45,34,20,12,64,26,14,0.00,40.00,53,20,61,0.00
2013-10-28,45,34,31,34,29,21,97,83,43,0.00,40.00,53,22,72,0.00
2013-10-29,38,33,31,32,31,28,97,93,75,0.00,40.00,29,11,49,0.04
2013-10-30,53,39,32,33,28,24,97,70,37,0.00,40.00,17,8,24,0.01
2013-10-31,54,47,40,27,16,9,57,30,20,0.00,40.00,10,6,17,0.00
2013-11-1,59,51,44,21,18,14,36,28,19,0.00,40.00,13,8,19,0.00
2013-11-2,61,52,46,24,16,-100,34,25,16,0.00,40.00,33,12,43,0.00
2013-11-3,56,46,39,32,25,16,77,44,27,0.00,40.00,38,17,54,0.00
2013-11-4,53,41,34,33,27,20,94,61,27,0.00,40.00,25,10,31,0.00
2013-11-5,45,40,35,26,8,-2,59,29,17,0.00,40.00,21,9,29,0.00
2013-11-6,56,46,39,14,4,-2,27,18,12,0.00,40.00,19,11,27,0.00
2013-11-7,60,52,45,19,15,10,31,24,17,0.00,40.00,17,8,24,0.00
2013-11-8,67,56,47,16,9,0,27,16,11,0.00,40.00,20,12,24,0.00
2013-11-9,60,53,50,13,3,-100,21,13,10,0.00,40.00,15,9,19,0.00
2013-11-10,59,54,49,11,6,1,17,14,12,0.00,40.00,12,8,18,0.00
2013-11-11,64,54,48,13,9,6,21,16,11,0.00,40.00,19,10,31,0.00
2013-11-12,64,57,54,12,8,2,16,14,11,0.00,40.00,13,7,18,0.00
2013-11-13,69,59,53,23,17,12,29,20,13,0.00,40.00,8,5,13,0.00
2013-11-14,66,57,49,24,19,13,36,24,16,0.00,40.00,31,15,47,0.00
2013-11-15,50,44,37,36,30,24,95,61,36,0.00,40.00,34,18,51,0.00
2013-11-16,46,37,32,36,27,-100,97,74,45,0.00,40.00,36,28,62,0.02
2013-11-17,48,41,35,31,28,22,74,59,45,0.00,40.00,28,12,37,0.01
2013-11-18,52,44,38,35,32,29,76,64,50,0.00,40.00,24,9,33,0.00
2013-11-19,50,40,34,33,31,27,88,69,48,0.00,40.00,30,20,45,0.00
2013-11-20,51,41,35,39,35,33,96,80,57,0.00,40.00,38,21,50,0.00
2013-11-21,44,37,32,42,35,31,97,94,79,0.00,40.00,30,12,45,0.25
2013-11-22,34,32,30,32,29,25,97,91,76,0.00,40.00,8,2,24,0.04
2013-11-23,35,32,30,32,28,-100,97,92,76,0.00,40.00,16,8,26,0.10
2013-11-24,43,36,30,34,28,17,97,73,49,0.00,40.00,7,4,16,0.42
2013-11-25,56,44,34,34,24,14,84,49,28,0.00,40.00,10,5,19,0.02
2013-11-26,49,44,40,23,19,14,48,37,27,0.00,40.00,20,11,36,0.00
2013-11-27,47,41,37,33,26,22,74,56,47,0.00,40.00,16,12,33,0.00
2013-11-28,45,39,36,29,25,20,74,59,44,0.00,40.00,18,10,37,0.00
2013-11-29,47,40,36,29,25,22,62,56,46,0.00,40.00,14,8,26,0.00
2013-11-30,52,44,38,24,20,-100,52,39,31,0.00,40.00,7,4,11,0.00
2013-12-1,61,49,41,21,14,1,38,24,13,0.00,40.00,4,2,13,0.00
2013-12-2,58,52,46,15,9,1,28,18,13,0.00,40.00,42,22,65,0.00
2013-12-3,46,38,25,37,29,15,98,74,28,0.00,40.00,47,35,71,0.03
2013-12-4,35,25,19,23,10,2,93,55,30,0.00,40.00,34,13,49,0.03
2013-12-5,36,24,19,14,6,-8,62,47,27,0.00,40.00,15,6,18,0.00
2013-12-6,35,26,19,3,-10,-26,49,22,9,0.00,40.00,31,18,45,0.00
2013-12-7,28,21,16,26,12,-100,92,71,26,0.00,40.00,43,29,74,0.05
2013-12-8,33,20,14,14,6,1,70,56,39,0.00,40.00,30,10,46,0.01
2013-12-9,29,21,16,3,-4,-10,52,34,23,0.00,40.00,23,11,41,0.00
2013-12-10,46,35,21,2,-4,-10,24,19,15,0.00,40.00,16,10,23,0.00
2013-12-11,47,38,33,6,2,-3,26,21,17,0.00,40.00,11,8,21,0.00
2013-12-12,53,42,37,9,3,-2,26,19,14,0.00,40.00,24,9,33,0.00
2013-12-13,52,40,34,12,3,-2,37,21,13,0.00,40.00,30,12,49,0.00
2013-12-14,51,40,35,13,9,-100,38,28,18,0.00,40.00,17,7,23,0.00
2013-12-15,63,49,42,12,5,-1,21,16,12,0.00,40.00,14,7,21,0.00
2013-12-16,66,55,48,11,9,6,20,16,10,0.00,40.00,18,10,24,0.00
2013-12-17,62,56,50,10,7,4,17,14,12,0.00,40.00,14,7,21,0.00
2013-12-18,57,51,39,16,13,5,37,23,14,0.00,40.00,28,11,38,0.00
2013-12-19,40,33,29,29,24,15,96,73,37,0.00,40.00,31,16,51,0.00
2013-12-20,47,33,26,35,22,2,96,71,20,0.00,40.00,17,8,22,0.01
2013-12-21,51,40,33,25,19,-100,56,44,30,0.00,40.00,21,7,25,0.01
2013-12-22,48,42,37,23,21,16,52,43,36,0.00,40.00,12,6,17,0.00
2013-12-23,50,43,36,25,22,19,54,43,34,0.00,40.00,13,6,17,0.00
2013-12-24,64,48,42,22,18,14,43,31,18,0.00,40.00,10,4,16,0.00
2013-12-25,57,46,39,18,6,-17,41,21,7,0.00,40.00,8,4,15,0.00
2013-12-26,57,49,43,-4,-14,-23,9,6,4,0.00,40.00,9,4,16,0.00
2013-12-27,67,52,47,-3,-12,-24,11,7,4,0.00,40.00,16,7,19,0.00
2013-12-28,61,48,42,-1,-7,-100,14,10,6,0.00,40.00,20,10,38,0.00
2013-12-29,50,44,35,2,-6,-18,18,12,6,0.00,40.00,13,7,23,0.00
2013-12-30,59,49,43,-2,-8,-18,12,9,6,0.00,40.00,17,9,22,0.00
2013-12-31,57,49,44,5,0,-6,17,13,10,0.00,40.00,20,12,26,0.00
2014-1-1,61,49,44,14,10,2,28,20,13,0.00,40.00,14,8,19,0.00
2014-1-2,57,48,44,20,17,13,35,29,21,0.00,40.00,14,7,17,0.00